sat.trackr.live / text

‹ back to catalog

STARLINK-31403

NORAD 59186 · 2024-045J

PAYLOAD ACTIVE UNKNOWN

§ Identity

Operator
Country
US
Launch date
2024-03-10
Launch site
AFETR
Launch vehicle
Mass (kg)
RCS (m²)

Purposes: comms

External: N2YO · Heavens-Above · Gunter

§ Orbital elements

Epoch: 2026-09-20T17:13:40.437696Z

Period
94.27 min
Inclination
43.0044°
Eccentricity
0.0001005
Mean motion
15.27579249 rev/d
Perigee alt
482.4 km
Apogee alt
483.7 km
Semi-major
6,861.2 km
B*
1.9924e-5
RAAN
49.7019°
Arg perigee
275.3904°
Mean anomaly
84.6833°
Rev number
14,317

§ Raw data

STARLINK-314031 59186U 24045J   26263.71782914  .00000286  00000+0  19924-4 0  99962 59186  43.0044  49.7019 0001005 275.3904  84.6833 15.27579249143171

JSON: /api/v1/satellites/59186 · /tle

For live sub-satellite position, see the globe view (requires WebGL).

§ Visibility from observer

Set your observer location to see the next 7 days of passes ≥ 10°. The values pass through the URL so the page stays shareable.

No JS? Fill the form by hand. The geolocation button needs JavaScript.